Weather History for Topeka, KS

Change the Weather History Date:

Monday, June 4, 2012

  Actual Average Record
Temperature  
Mean Temperature 78 °F 71 °F  
Max Temperature 94 °F 82 °F 100 °F (1933)
Min Temperature 61 °F 60 °F 44 °F (1990)
Degree Days  
Heating Degree Days 0 1  
Month to date heating degree days 9 4  
Since 1 June heating degree days 9 4  
Since 1 July heating degree days 3795 5017  
Cooling Degree Days 13 7  
Month to date cooling degree days 23 25  
Year to date cooling degree days 341 151  
Since 1 June cooling degree days 23 25  
Growing Degree Days 27 (Base 50)    
Moisture  
Dew Point 63 °F    
Average Humidity 65    
Maximum Humidity 100    
Minimum Humidity 30    
Precipitation  
Precipitation 0.00 in 0.17 in 3.06 in (2002)
Month to date precipitation 0.01 0.68  
Year to date precipitation 11.26 13.79  
Snow  
Snow 0.00 in 0.00 in T in (1979)
Month to date snowfall 0.0 0.0  
Year to date snowfall 3.0 11.3  
Since 1 July snowfall 3.1 17.8  
Snow Depth 0.00 in    
Sea Level Pressure  
Sea Level Pressure 29.84 in    
Wind  
Wind Speed 6 mph (NNW)    
Max Wind Speed 18 mph    
Max Gust Speed 24 mph    
Visibility 5 miles    
Events Fog    
T = Trace of Precipitation, MM = Missing Value Source: NWS Daily Summary

Daily Weather History Graph

Daily Weather History Graph

Search for Another Location

Airport:

Trip Planner

Search our weather history database for the weather conditions in past years. The results will help you decide how hot, cold, wet, or windy it might be!

Date:

Astronomy

Jun. 04, 2012 Rise Set
Actual Time 5:57 AM CDT 8:44 PM CDT
Civil Twilight 5:25 AM CDT 9:16 PM CDT
Nautical Twilight 4:45 AM CDT 9:56 PM CDT
Astronomical Twilight 4:00 AM CDT 10:41 PM CDT
Moon 9:15 PM CDT (6/4) 6:05 AM CDT (6/4)
Length of Visible Light 15h 51m
Length of Day
14h 47m
Full, 100% of the Moon is Illuminated
Jun 4
Full
Jun 11
Last Quarter
Jun 19
New
Jun 26
First Quarter
Jul 3
Full

Hourly Weather History & Observations

Time (CDT) Temp. Heat Index Dew Point Humidity Pressure Visibility Wind Dir Wind Speed Gust Speed Precip Events Conditions
12:27 AM 69.8 °F - 68.0 °F 94% 29.84 in 1.2 mi Calm Calm - N/A   Clear
12:35 AM 68.0 °F - 68.0 °F 100% 29.84 in 0.8 mi Calm Calm - N/A   Clear
12:49 AM 68.0 °F - 68.0 °F 100% 29.84 in 0.2 mi Calm Calm - N/A Fog Fog
12:53 AM 68.0 °F - 68.0 °F 100% 29.82 in 0.2 mi Calm Calm - N/A Fog Fog
1:20 AM 66.2 °F - 66.2 °F 100% 29.83 in 0.2 mi Calm Calm - N/A Fog Fog
1:53 AM 66.0 °F - 66.0 °F 100% 29.80 in 0.2 mi Calm Calm - N/A Fog Fog
2:53 AM 64.0 °F - 64.0 °F 100% 29.77 in 0.2 mi Calm Calm - N/A Fog Fog
3:26 AM 64.4 °F - 64.4 °F 100% 29.82 in 0.2 mi SSW 3.5 mph - N/A Fog Fog
3:33 AM 64.4 °F - 64.4 °F 100% 29.82 in 1.2 mi Calm Calm - N/A   Mist
3:36 AM 66.2 °F - 64.4 °F 94% 29.83 in 3.0 mi Calm Calm - N/A   Mist
3:53 AM 64.0 °F - 64.0 °F 100% 29.81 in 4.0 mi Calm Calm - N/A   Clear
4:08 AM 62.6 °F - 62.6 °F 100% 29.83 in 1.0 mi Calm Calm - N/A   Clear
4:15 AM 62.6 °F - 62.6 °F 100% 29.83 in 0.2 mi Calm Calm - N/A Fog Fog
4:46 AM 62.6 °F - 62.6 °F 100% 29.84 in 1.0 mi Calm Calm - N/A   Mist
4:49 AM 62.6 °F - 62.6 °F 100% 29.84 in 2.0 mi Calm Calm - N/A   Scattered Clouds
4:53 AM 62.6 °F - 62.6 °F 100% 29.84 in 4.0 mi Calm Calm - N/A   Partly Cloudy
5:53 AM 62.1 °F - 61.0 °F 96% 29.84 in 3.0 mi Calm Calm - N/A   Clear
5:59 AM 60.8 °F - 60.8 °F 100% 29.86 in 0.8 mi Calm Calm - N/A   Clear
6:03 AM 62.6 °F - 60.8 °F 94% 29.86 in 0.2 mi Calm Calm - N/A Fog Fog
6:53 AM 64.4 °F - 64.4 °F 100% 29.88 in 0.8 mi SSW 4.6 mph - N/A   Mist
6:55 AM 64.4 °F - 64.4 °F 100% 29.88 in 3.0 mi South 4.6 mph - N/A   Clear
7:53 AM 72.0 °F - 66.9 °F 84% 29.88 in 10.0 mi WSW 4.6 mph - N/A   Clear
8:53 AM 75.9 °F - 68.0 °F 76% 29.88 in 10.0 mi West 5.8 mph - N/A   Clear
9:53 AM 79.0 °F - 69.1 °F 72% 29.88 in 10.0 mi WNW 5.8 mph - N/A   Clear
10:53 AM 82.9 °F 86.5 °F 69.1 °F 63% 29.88 in 10.0 mi WSW 5.8 mph - N/A   Clear
11:53 AM 89.6 °F 92.2 °F 66.2 °F 46% 29.89 in 10.0 mi NNW 8.1 mph - N/A   Clear
12:53 PM 91.0 °F 90.5 °F 60.1 °F 35% 29.86 in 10.0 mi NNW 9.2 mph - N/A   Clear
1:53 PM 91.9 °F 91.5 °F 60.1 °F 34% 29.86 in 10.0 mi North 10.4 mph 18.4 mph N/A   Clear
2:53 PM 93.0 °F 92.0 °F 57.9 °F 31% 29.84 in 10.0 mi North 12.7 mph - N/A   Clear
3:53 PM 93.0 °F 92.3 °F 59.0 °F 32% 29.83 in 10.0 mi NNE 12.7 mph - N/A   Clear
4:53 PM 93.0 °F 91.7 °F 57.0 °F 30% 29.82 in 10.0 mi North 12.7 mph 20.7 mph N/A   Clear
5:53 PM 91.9 °F 90.0 °F 55.0 °F 29% 29.82 in 10.0 mi North 10.4 mph - N/A   Clear
6:53 PM 89.1 °F 87.1 °F 55.0 °F 31% 29.81 in 10.0 mi North 10.4 mph - N/A   Clear
7:53 PM 84.9 °F 84.4 °F 59.0 °F 41% 29.83 in 10.0 mi North 5.8 mph - N/A   Clear
8:53 PM 81.0 °F 81.3 °F 59.0 °F 47% 29.84 in 10.0 mi NNE 3.5 mph - N/A   Clear
9:53 PM 78.1 °F - 61.0 °F 56% 29.85 in 10.0 mi North 3.5 mph - N/A   Clear
10:53 PM 73.9 °F - 61.0 °F 64% 29.86 in 10.0 mi NE 5.8 mph - N/A   Clear
11:53 PM 73.9 °F - 63.0 °F 68% 29.88 in 10.0 mi ENE 4.6 mph - N/A   Clear